Location: ???????
(41.9664°N, 44.5675°E)
Time: 06:56:31
(UTC+00:00)

Daily predictions for brighter satellites

Satellite Brightness Start Highest point End
(mag) Time Altitude Azimuth Time Altitude Azimuth Time Altitude Azimuth
Cosmos 2154 Rocket 4.3 13:50:16 10° N 13:56:22 47° ENE 14:02:26 10° SSE
Cosmos 2278 Rocket 2.5 13:51:46 10° NNW 13:57:15 47° ENE 14:02:42 10° SE
Cosmos 1805 Rocket 4.4 13:58:23 10° NNE 14:02:19 29° ENE 14:06:12 10° SE
ISS -3.7 14:00:31 10° SW 14:03:53 88° SE 14:07:15 10° NE
NOSS 0 Rocket 4.0 13:57:45 10° SSW 14:03:54 68° ESE 14:10:07 10° NNE
Cosmos 540 Rocket 4.5 14:00:32 10° SW 14:05:29 48° WNW 14:10:26 10° N
Cosmos 2360 Rocket 4.3 14:02:01 10° W 14:06:18 22° NW 14:10:35 10° N
NOAA 12 4.2 14:06:56 10° SSE 14:12:08 58° ENE 14:17:22 10° N
SL-24 R/B - RUBIN 2 4.5 14:06:56 10° NNW 14:13:04 51° NE 14:18:32 10° SE
Cosmos 2219 Rocket 3.2 14:08:48 10° SW 14:14:12 45° WNW 14:19:39 10° NNE
CZ-4B R/B 2.4 14:12:05 10° NE 14:14:39 24° E 14:17:13 10° SSE
Lacrosse 5 rocket 3.2 14:13:45 10° SE 14:14:58 11° ESE 14:16:12 10° ESE
Cosmos 1862 3.3 14:11:26 10° N 14:15:28 68° E 14:19:27 10° SSE
Aureole 2 Rocket 3.9 14:15:32 10° NW 14:18:07 34° WSW 14:20:46 10° S
CZ-4B R/B 3.1 14:13:40 10° SSE 14:19:00 72° ENE 14:24:17 10° N
Envisat 3.4 14:15:41 10° S 14:20:44 71° WSW 14:25:50 10° NNW
Cosmos 2327 Rocket 4.4 14:16:33 10° N 14:22:42 76° E 14:28:55 10° SSE
Cosmos 2237 Rocket 2.2 14:17:48 10° SSW 14:23:23 72° ESE 14:29:01 10° NNE
Cosmos 2074 Rocket 4.4 14:17:14 10° NNW 14:23:26 70° W 14:29:38 10° S
SMAP 3.0 14:19:52 10° SSE 14:24:31 77° ENE 14:29:10 10° N
Landsat 5 4.3 14:20:36 10° N 14:24:53 57° WNW 14:29:16 10° SSW
ERS-2 2.8 14:21:51 10° NNE 14:25:13 33° E 14:28:33 10° SSE
NOAA 11 4.3 14:20:46 10° SE 14:25:59 51° ENE 14:31:13 10° N
CZ-4 R/B 3.1 14:26:19 13° ENE 14:26:19 13° ENE 14:28:00 10° NE
FengYun 1-2 T 4.3 14:21:47 10° SSE 14:27:12 56° ENE 14:32:36 10° N
H-2A R/B 2.4 14:24:31 10° N 14:28:39 67° WNW 14:32:51 10° SSW
USA 281 3.9 14:23:14 10° ESE 14:28:46 30° NE 14:34:19 10° N
SKYMED 2 4.4 14:27:31 10° NE 14:31:20 29° E 14:35:06 10° SSE
TELKOM 3 3.1 14:28:41 10° WSW 14:31:32 77° NNW 14:33:06 20° NE
H-2A R/B 3.6 14:31:10 13° E 14:32:43 15° ENE 14:35:35 10° NNE
CORIOLIS 4.1 14:31:37 10° SSE 14:37:00 85° ENE 14:42:28 10° NNW
Cosmos 2369 Rocket 3.9 14:35:50 10° NNE 14:38:12 12° NE 14:38:30 12° NE
Cosmos 1939 Rocket 3.4 14:35:04 10° SE 14:38:32 33° ENE 14:42:04 10° N
GENESIS II 4.3 14:35:24 10° NNW 14:39:15 50° NE 14:43:02 10° SE
Cosmos 1633 Rocket 3.9 14:35:33 10° NNE 14:39:21 28° ENE 14:43:06 10° SE
Meteor 2-12 Rocket 4.5 14:34:04 10° N 14:40:10 61° E 14:46:12 10° SSE
Cosmos 1980 3.9 14:35:51 10° SSW 14:41:33 77° WNW 14:47:15 10° NNE
CREW DRAGON DEMO-1 DEB 4.4 14:41:33 10° NNW 14:43:49 19° NNE 14:44:19 18° NNE
Cosmos 1295 Rocket 4.5 14:39:34 10° N 14:45:45 90° W 14:51:59 10° S
BREEZE-M R/B 2.4 14:56:14 10° WNW 15:00:12 86° NNE 15:00:49 44° ESE
Cosmos 2297 4.0 14:58:52 10° NNW 15:04:18 44° ENE 15:09:44 10° SE
Abrixas rocket 2.6 15:02:32 10° WNW 15:05:12 46° SSW 15:06:18 28° SSE
USA 215 3.4 15:00:30 16° NE 15:05:50 74° NW 15:12:21 10° WSW
YAOGAN 1 3.3 15:07:03 31° ENE 15:07:03 31° ENE 15:10:26 10° N
Cosmos 1943 Rocket 2.9 15:03:13 10° N 15:07:59 28° NE 15:08:30 28° ENE
SL-16 R/B 2.2 15:05:35 10° S 15:11:09 63° ESE 15:14:57 21° NE
Cosmos 389 Rocket 3.3 15:08:39 10° SSW 15:11:59 50° WNW 15:15:20 10° N
CZ-2C R/B 3.2 15:07:56 10° SE 15:12:53 46° ENE 15:17:36 10° N
Cosmos 1867 3.5 15:07:34 10° SSW 15:12:59 89° ESE 15:16:35 22° NNE
Cosmos 1933 3.2 15:10:25 10° S 15:14:26 86° E 15:17:56 14° N
Cosmos 44 4.0 15:09:28 10° NNW 15:14:26 39° NE 15:15:40 34° E
Cosmos 2218 Rocket 3.9 15:09:17 10° N 15:15:25 65° E 15:21:30 10° SSE
Meteor 1-26 Rocket 4.4 15:09:54 10° S 15:15:44 57° E 15:21:38 10° NNE
Okean-O 2.7 15:13:20 10° SSE 15:17:36 50° ENE 15:21:53 10° N
CZ-4 R/B 4.3 15:13:48 10° SSE 15:17:55 71° ENE 15:22:03 10° N
COSMO-SKYMED 1 2.6 15:15:08 10° N 15:19:29 83° WNW 15:23:50 10° SSW
Cosmos 1515 Rocket 4.4 15:16:46 10° SSE 15:19:35 31° SE 15:19:35 31° SE
Cosmos 1689 Rocket 2.5 15:21:24 53° S 15:21:24 53° S 15:23:44 10° S
PSLV R/B 3.7 15:24:06 33° NNE 15:25:53 82° ESE 15:29:54 10° S
Cosmos 2366 rocket 3.8 15:20:25 10° N 15:26:39 76° E 15:32:47 10° SSE
Cosmos 1606 4.5 15:24:53 10° SW 15:28:26 33° WNW 15:31:59 10° N
Okean O Rocket 4.0 15:25:45 10° SSW 15:29:15 24° W 15:32:47 10° NW
Sich 1 4.4 15:25:17 10° NNW 15:29:24 41° W 15:33:29 10° SSW
Helios 1A Rocket 2.7 15:27:37 10° SSE 15:31:37 71° ENE 15:35:39 10° N
Cosmos 1782 3.3 15:29:04 10° S 15:31:55 44° SSE 15:31:55 44° SSE
Meteor 1-20 Rocket 4.4 15:29:49 10° NNW 15:35:41 80° W 15:41:30 10° S
USA 267 3.2 15:34:22 34° ESE 15:37:23 70° NE 15:43:53 10° NW
Cosmos 2278 Rocket 4.4 15:36:28 10° NW 15:41:01 25° WSW 15:45:33 10° SSW
ISS -1.7 15:38:21 10° WNW 15:40:35 21° NNW 15:40:35 21° NNW
Cosmos 1151 Rocket 3.6 15:39:29 10° SSW 15:43:42 56° W 15:46:30 20° N
CZ-4B R/B 4.2 15:44:56 10° NNW 15:46:41 14° WNW 15:48:27 10° WSW
Cosmos 489 Rocket 4.3 15:41:26 10° S 15:47:33 68° ESE 15:49:09 49° NE
Cosmos 1328 Rocket 4.1 15:45:11 10° SSW 15:49:24 56° W 15:51:30 28° NNW
Lacrosse 5 rocket 2.2 15:49:58 10° SW 15:52:28 40° WSW 15:52:28 40° WSW
DMSP B5D1-3 4.3 15:53:57 77° ESE 15:53:57 77° ESE 15:59:02 10° S
CSL-04 Debris 4.0 15:54:25 70° ENE 15:54:25 70° ENE 15:59:51 10° N
CZ-4 R/B 2.9 16:02:21 30° NW 16:02:21 30° NW 16:04:37 10° NNW
Cosmos 2285 Rocket 4.3 16:00:06 10° NNW 16:06:26 67° WSW 16:12:43 10° S
Cosmos 2237 Rocket 4.5 16:04:06 10° W 16:08:03 19° NW 16:12:01 10° N
Nadezhda 3 Rocket 4.1 16:04:56 10° S 16:10:15 63° SSE 16:10:15 63° SSE
H-2A R/B 2.2 16:11:49 75° WNW 16:11:49 75° WNW 16:16:46 10° NNW
USA 281 3.7 16:06:28 10° S 16:12:53 57° WSW 16:19:22 10° NNW
CSL-04 Rocket 4.4 16:20:06 43° NNW 16:20:06 43° NNW 16:23:39 10° NNW
Cosmos 2369 Rocket 3.6 16:17:40 10° NNW 16:20:20 28° NNW 16:20:20 28° NNW
USA 215 4.4 16:47:51 31° NNW 16:48:13 31° NNW 16:53:48 10° WNW
Cosmos 1943 Rocket 3.6 16:46:38 10° NW 16:50:06 33° WNW 16:50:06 33° WNW
ATLAS CENTAUR R/B 4.0 16:34:52 10° NW 16:52:04 66° WSW 16:53:32 58° SSW
SL-16 R/B 4.2 16:51:28 10° W 16:55:44 22° NW 16:56:52 20° NW
